Date,TemperatureHighF,TemperatureAvgF,TemperatureLowF,DewpointHighF,DewpointAvgF,DewpointLowF,HumidityHigh,HumidityAvg,HumidityLow,PressureMaxIn,PressureMinIn,WindSpeedMaxMPH,WindSpeedAvgMPH,GustSpeedMaxMPH,PrecipitationSumIn
2013-1-1,26.5,13.1,5.0,23.7,7.5,-0.6,92,78,66,29.93,29.67,9,4,14,0.06
2013-1-2,12.3,3.5,-15.3,7.3,-1.1,-19.9,85,81,68,30.27,29.90,5,2,11,0.01
2013-1-3,9.6,-3.9,-17.9,0.7,-9.8,-22.8,84,75,62,30.28,30.01,3,0,5,0.00
2013-1-4,28.8,19.9,4.0,26.0,16.3,-0.3,91,86,81,30.01,29.77,6,2,11,0.03
2013-1-5,28.6,16.8,0.3,25.9,11.2,-3.4,91,79,61,30.27,29.76,9,3,15,0.03
2013-1-6,26.1,17.6,3.1,23.2,14.2,-0.6,92,86,79,30.24,29.95,2,0,3,0.04
2013-1-7,27.1,14.1,-2.7,24.8,9.8,-6.4,91,83,64,30.40,29.98,5,2,9,0.00
2013-1-8,35.6,14.9,-3.0,25.7,9.9,-6.9,91,81,62,30.43,30.25,2,0,4,0.00
2013-1-9,38.1,23.4,9.1,31.7,19.7,5.5,92,86,65,30.43,29.94,9,1,15,0.02
2013-1-10,36.1,32.7,23.5,31.5,26.1,18.8,92,77,68,30.56,29.99,9,4,16,0.04
2013-1-11,32.9,24.1,12.8,31.1,19.4,9.9,94,82,68,30.57,30.17,6,2,8,0.02
2013-1-12,38.1,35.7,32.8,37.0,34.5,31.3,96,96,94,30.19,30.09,4,1,6,0.00
2013-1-13,41.7,36.4,34.0,40.9,35.3,32.7,97,96,94,30.15,29.93,5,1,6,0.00
2013-1-14,43.3,37.0,31.5,42.4,33.2,22.8,98,87,63,30.27,29.83,6,1,7,0.00
2013-1-15,31.5,24.9,19.4,22.1,18.5,15.9,86,77,67,30.30,30.27,3,1,3,0.00
2013-1-16,28.3,24.6,22.2,26.5,21.8,18.9,93,89,85,30.19,29.79,1,0,1,0.07
2013-1-17,30.7,17.4,6.7,27.3,3.6,-7.8,93,57,35,30.16,29.77,8,4,11,0.01
2013-1-18,13.9,0.3,-13.8,-1.4,-9.2,-18.7,82,65,41,30.42,30.16,10,2,14,0.00
2013-1-19,26.7,18.7,3.5,23.7,15.1,-0.8,91,86,79,30.33,29.81,4,1,5,0.14
2013-1-20,35.7,25.2,9.6,32.2,19.3,2.4,94,79,53,29.91,29.45,12,5,20,0.03
2013-1-21,15.8,7.7,-9.3,7.6,-0.5,-13.8,84,70,45,30.07,29.85,6,1,7,0.00
2013-1-22,11.4,4.6,-4.5,4.5,-2.3,-14.2,87,73,52,30.09,29.83,7,2,11,0.01
2013-1-23,-3.6,-10.2,-20.9,-11.0,-19.1,-26.3,79,65,47,30.21,30.08,9,2,12,0.00
2013-1-24,6.3,-6.7,-23.9,-8.6,-16.7,-29.3,80,63,40,30.38,30.17,8,3,10,0.00
2013-1-25,10.8,2.4,-10.0,0.2,-6.3,-15.0,82,67,50,30.39,30.15,5,2,9,0.00
2013-1-26,11.7,4.7,-7.1,3.2,-3.6,-11.6,83,69,47,30.30,30.12,5,2,13,0.00
2013-1-27,16.4,4.3,-6.9,2.3,-3.9,-12.1,85,70,36,30.55,30.30,5,2,10,0.00
2013-1-28,15.3,5.5,-8.6,12.1,1.0,-13.1,90,81,60,30.53,30.12,4,1,5,0.18
2013-1-29,30.6,18.2,0.6,29.1,14.7,-3.3,94,86,80,30.25,30.08,6,1,9,0.03
2013-1-30,47.6,39.2,30.7,47.1,38.2,29.4,98,96,94,30.08,29.34,8,4,15,0.27
2013-1-31,48.6,36.6,19.5,48.1,30.4,6.1,98,79,51,29.45,28.80,13,5,25,0.61
2013-2-1,19.5,12.6,7.9,10.9,4.7,-0.4,81,70,58,30.12,29.45,8,4,14,0.00
2013-2-2,18.5,10.7,-1.1,13.0,4.6,-4.8,88,77,58,30.21,30.07,8,2,13,0.00
2013-2-3,25.5,13.7,2.3,14.3,7.0,-1.4,90,76,43,30.08,29.77,3,0,5,0.00
2013-2-4,17.9,7.8,4.9,10.9,-5.0,-8.9,83,55,52,29.91,29.74,7,5,9,0.00
2013-2-5,18.7,4.4,-9.2,3.1,-6.0,-13.7,81,64,38,30.08,29.92,4,1,8,0.00
2013-2-6,25.6,15.6,6.2,20.9,7.9,-7.2,87,72,48,30.36,29.95,8,2,13,0.00
2013-2-7,13.9,4.6,-1.9,-2.5,-8.1,-11.3,72,57,35,30.60,30.36,4,2,7,0.00
2013-2-8,21.2,13.8,10.7,18.5,8.1,-1.9,89,78,54,30.50,29.99,5,2,9,0.25
2013-2-9,14.6,9.4,6.1,11.2,2.9,-1.9,86,75,63,30.35,29.96,7,4,24,0.01
2013-2-10,28.9,9.2,-11.2,6.3,-3.2,-15.9,89,61,29,30.51,30.36,4,1,6,0.00
2013-2-11,31.2,19.5,0.7,29.9,16.2,-3.5,95,87,54,30.37,29.62,8,2,11,0.08
2013-2-12,34.3,31.6,29.0,30.7,28.7,25.3,95,89,82,29.81,29.59,6,2,10,0.01
2013-2-13,32.5,29.3,27.2,25.5,24.1,21.7,92,81,65,29.84,29.76,5,2,8,0.00
2013-2-14,32.9,28.1,23.1,24.5,21.1,17.9,88,76,58,29.98,29.75,4,1,7,0.00
2013-2-15,40.9,31.0,22.3,29.7,23.5,17.8,88,74,52,29.97,29.86,9,2,10,0.00
2013-2-16,29.7,24.0,15.3,22.0,13.0,4.5,80,63,50,29.99,29.90,6,2,9,0.00
2013-2-17,15.0,10.3,6.7,5.9,3.0,0.7,83,72,63,29.89,29.59,8,4,20,0.00
2013-2-18,19.5,9.0,0.0,1.9,-3.2,-7.1,77,60,32,30.19,29.78,10,4,16,0.00
2013-2-19,38.2,22.2,-1.2,30.7,9.2,-7.5,95,60,29,30.22,29.61,9,2,13,0.05
2013-2-20,32.5,24.5,18.6,30.7,19.7,13.5,93,82,69,29.72,29.56,8,3,11,0.15
2013-2-21,21.0,14.1,6.5,17.3,8.7,0.5,86,79,71,30.37,29.73,8,3,14,0.00
2013-2-22,33.2,25.4,15.8,22.3,19.5,12.9,90,79,61,30.47,30.30,4,1,9,0.00
2013-2-23,30.6,28.8,23.1,29.0,24.8,19.3,95,85,72,30.30,29.94,9,4,14,0.10
2013-2-24,35.2,31.9,29.5,32.9,29.8,27.0,95,92,88,29.94,29.78,2,0,4,0.03
2013-2-25,36.5,32.5,29.8,30.3,28.7,27.2,92,86,73,30.25,29.93,3,1,7,0.00
2013-2-26,39.3,33.7,28.5,31.4,28.5,26.5,93,82,65,30.34,30.17,6,1,10,0.00
2013-2-27,37.9,32.2,29.7,31.5,28.0,24.0,95,85,73,30.17,29.67,5,1,8,0.21
2013-2-28,41.4,36.0,30.8,34.2,31.6,28.5,91,84,73,29.67,29.57,3,1,5,0.01
2013-3-1,32.7,30.3,27.8,30.3,26.8,24.8,92,87,80,29.74,29.57,4,2,9,0.00
2013-3-2,31.6,27.4,23.0,26.2,24.0,20.2,92,87,74,29.76,29.71,5,2,11,0.04
2013-3-3,30.3,25.0,21.7,25.8,21.4,18.4,90,86,82,29.73,29.65,5,2,9,0.02
2013-3-4,25.3,22.4,20.5,19.6,17.9,17.0,92,83,75,29.88,29.67,6,4,10,0.00
2013-3-5,38.2,29.4,22.7,29.6,24.6,18.7,91,82,70,30.13,29.88,5,2,9,0.00
2013-3-6,38.3,33.4,29.7,29.3,26.2,22.1,91,75,58,30.24,30.12,5,2,11,0.00
2013-3-7,35.1,30.9,28.0,24.5,22.5,20.5,76,71,64,30.23,30.15,4,2,11,0.00
2013-3-8,41.6,32.1,26.8,24.1,22.7,21.5,82,69,49,30.32,30.14,5,3,13,0.00
2013-3-9,48.3,35.0,24.3,24.5,22.9,20.4,85,64,36,30.36,30.28,4,2,8,0.00
2013-3-10,48.5,34.2,19.2,28.4,22.9,16.1,88,66,39,30.39,30.20,8,3,12,0.00
2013-3-11,45.2,40.4,32.5,32.2,29.8,27.9,84,66,53,30.23,30.01,9,4,15,0.00
2013-3-12,45.3,42.0,36.2,44.0,39.3,32.2,96,90,67,30.03,29.72,9,4,15,1.13
2013-3-13,38.7,34.9,26.8,34.3,29.7,24.0,93,82,61,29.81,29.73,5,2,8,0.00
2013-3-14,28.9,22.8,12.7,25.3,15.7,4.6,92,74,59,29.89,29.70,8,4,17,0.00
2013-3-15,30.3,19.9,11.0,24.9,11.5,4.7,90,71,42,29.90,29.62,8,2,8,0.02
2013-3-16,24.6,20.4,9.2,20.3,13.1,4.6,96,74,53,29.94,29.72,5,2,9,0.02
2013-3-17,20.7,10.5,2.2,10.6,3.1,-1.7,87,73,41,30.39,29.93,8,2,12,0.00
2013-3-18,31.0,13.0,-3.9,16.1,1.1,-8.0,84,62,30,30.50,30.21,5,1,7,0.00
2013-3-19,27.8,24.6,22.1,24.3,19.7,8.3,93,83,45,30.21,29.76,8,3,10,0.53
2013-3-20,29.9,23.8,20.9,23.1,19.6,17.4,98,84,67,29.75,29.65,7,3,15,0.07
2013-3-21,33.9,21.9,7.4,18.0,12.9,4.1,91,70,39,29.75,29.64,6,2,10,0.00
2013-3-22,32.3,21.3,6.5,23.1,15.1,2.8,87,77,56,29.75,29.66,6,2,8,0.00
2013-3-23,31.3,27.5,22.8,24.9,22.4,18.6,95,81,70,29.78,29.61,11,5,17,0.01
2013-3-24,35.9,30.1,19.8,25.2,23.2,16.3,87,76,62,29.87,29.77,5,2,11,0.00
2013-3-25,43.6,29.8,10.2,28.6,20.5,7.2,90,70,47,29.84,29.61,7,1,13,0.00
2013-3-26,42.6,34.1,28.5,26.3,24.4,21.6,82,69,46,29.80,29.64,5,2,10,0.00
2013-3-27,41.0,34.4,23.2,32.2,27.4,19.5,92,76,60,29.93,29.77,5,2,13,0.01
2013-3-28,44.7,38.0,33.1,34.4,32.2,30.9,92,80,61,30.04,29.92,5,2,8,0.00
2013-3-29,45.5,38.9,32.6,36.0,32.3,29.3,94,78,53,30.07,30.00,6,2,8,0.01
2013-3-30,45.9,35.8,25.3,31.6,22.4,13.3,93,63,28,30.12,30.05,6,2,10,0.00
2013-3-31,50.4,36.4,19.1,35.5,22.0,15.9,92,60,32,30.12,29.78,10,4,15,0.01
2013-4-1,43.1,35.5,26.1,39.2,31.5,15.5,100,86,60,29.77,29.50,8,3,13,0.18
2013-4-2,28.0,22.7,19.5,20.6,16.3,13.8,88,77,58,29.87,29.73,10,4,12,0.02
2013-4-3,35.3,27.2,22.4,22.6,13.2,9.1,86,56,36,30.16,29.85,11,6,19,0.00
2013-4-4,47.3,33.8,20.8,22.7,14.2,9.3,81,47,25,30.26,29.94,10,4,15,0.00
2013-4-5,42.4,32.7,26.1,30.2,24.0,17.2,86,71,42,29.93,29.78,7,2,11,0.00
2013-4-6,34.4,25.8,18.3,20.2,8.6,3.3,86,50,28,30.34,29.93,7,4,14,0.00
2013-4-7,50.1,33.5,21.7,33.9,17.5,10.0,79,53,35,30.33,29.87,12,4,20,0.00
2013-4-8,52.0,43.6,33.0,34.6,31.1,28.3,84,63,43,30.12,29.89,7,2,12,0.00
2013-4-9,43.3,39.4,33.8,41.7,36.6,29.5,95,90,75,30.05,29.85,7,1,12,0.35
2013-4-10,46.1,40.1,36.1,41.9,37.4,34.1,95,90,77,30.02,29.92,2,0,4,0.07
2013-4-11,37.8,33.8,29.6,34.4,21.2,13.8,96,62,38,30.23,29.92,6,2,9,0.00
2013-4-12,31.7,30.4,27.5,30.0,25.1,16.3,95,82,54,30.23,29.88,5,1,8,0.54
2013-4-13,42.9,35.0,31.2,39.2,33.2,29.9,95,93,85,29.93,29.81,3,0,4,0.04
2013-4-14,43.0,36.4,29.0,36.8,31.6,26.6,95,83,64,30.23,29.90,7,2,11,0.01
2013-4-15,54.4,39.2,23.5,34.8,29.0,21.3,94,70,38,30.38,30.23,8,2,12,0.00
2013-4-16,54.4,46.2,34.4,51.7,40.7,30.6,97,82,61,30.31,29.94,11,3,15,0.21
2013-4-17,51.9,41.3,28.7,42.5,31.4,25.3,92,70,41,30.37,30.03,7,2,14,0.00
2013-4-18,55.3,40.5,26.7,37.9,30.4,23.7,90,69,46,30.43,30.00,10,3,19,0.00
2013-4-19,70.3,59.3,45.2,59.3,51.4,34.4,92,76,53,30.00,29.48,15,6,21,0.37
2013-4-20,48.4,41.0,31.8,43.0,30.5,20.3,94,68,44,30.24,29.60,10,4,14,0.15
2013-4-21,43.5,33.0,24.8,22.6,19.1,16.3,79,58,34,30.73,30.24,7,3,13,0.00
2013-4-22,53.1,36.4,19.7,23.7,18.9,13.9,88,54,23,30.79,30.59,10,3,15,0.00
2013-4-23,46.3,36.7,21.9,36.8,28.3,18.6,92,72,47,30.61,30.19,9,3,13,0.00
2013-4-24,71.0,51.0,28.6,51.0,38.3,26.6,95,67,32,30.18,29.65,8,2,11,0.03
2013-4-25,58.9,44.5,28.6,50.6,32.5,21.9,90,65,32,30.33,29.65,8,3,16,0.03
2013-4-26,52.1,38.8,24.3,40.3,29.6,21.4,91,72,42,30.47,30.32,8,1,11,0.00
2013-4-27,59.1,43.9,28.4,37.7,30.7,24.5,94,65,27,30.47,30.30,6,1,8,0.00
2013-4-28,68.1,49.1,28.1,40.1,32.5,25.0,89,59,27,30.34,30.15,8,2,11,0.00
2013-4-29,67.2,52.5,36.8,44.4,37.7,32.3,86,60,33,30.22,30.12,11,3,16,0.00
2013-4-30,69.3,56.8,45.1,48.7,43.9,39.7,86,63,40,30.31,30.20,8,2,14,0.00
2013-5-1,77.0,55.8,35.0,48.4,39.3,32.0,91,60,26,30.45,30.31,6,1,8,0.00
2013-5-2,78.5,58.1,36.7,46.6,40.6,33.6,89,57,29,30.44,30.31,7,2,11,0.00
2013-5-3,69.9,53.1,33.7,44.9,37.5,28.5,84,58,34,30.52,30.32,7,2,8,0.00
2013-5-4,75.1,55.9,35.6,46.9,38.6,31.2,95,59,21,30.37,30.17,6,1,19,0.00
2013-5-5,76.0,55.7,34.4,44.1,36.6,31.2,90,55,21,30.29,30.11,7,2,10,0.00
2013-5-6,76.6,56.4,34.9,44.2,35.6,25.1,90,52,17,30.22,30.04,8,2,14,0.00
2013-5-7,80.5,58.1,34.9,48.4,38.8,30.1,93,56,17,30.15,30.01,7,1,10,0.00
2013-5-8,77.1,58.9,39.6,56.2,48.6,37.3,96,71,34,30.18,30.05,15,4,20,0.00
2013-5-9,70.5,60.2,53.8,57.5,53.9,48.9,97,81,49,30.04,29.83,11,2,16,0.02
2013-5-10,71.2,60.3,52.8,57.9,54.1,51.2,97,82,51,29.96,29.82,8,1,11,0.00
2013-5-11,63.3,57.8,48.8,60.9,55.9,47.4,96,93,87,29.82,29.59,1,0,3,0.25
2013-5-12,60.8,50.0,37.3,51.6,41.9,27.9,98,76,43,29.73,29.56,8,2,11,0.00
2013-5-13,46.8,40.4,31.4,35.3,28.7,24.8,92,64,49,30.07,29.72,10,4,17,0.01
2013-5-14,53.2,40.4,26.5,33.2,27.2,24.4,96,64,35,30.10,29.99,6,2,11,0.01
2013-5-15,62.3,41.4,22.9,47.5,33.2,20.9,95,77,34,30.05,29.64,14,4,16,0.24
2013-5-16,70.4,54.3,41.9,52.3,42.6,36.0,98,69,29,29.86,29.58,13,4,20,0.00
2013-5-17,59.8,49.8,39.8,43.3,40.0,37.3,93,71,46,30.23,29.86,7,2,12,0.02
2013-5-18,69.0,53.5,35.8,47.0,39.9,34.2,97,65,30,30.32,30.21,5,1,10,0.00
2013-5-19,65.2,51.9,35.7,52.6,44.6,33.7,97,79,48,30.32,30.13,9,3,13,0.18
2013-5-20,67.6,57.0,48.6,61.0,54.3,47.4,98,91,70,30.13,29.97,5,1,8,0.24
2013-5-21,65.3,55.7,47.7,59.5,53.5,46.6,100,93,78,30.00,29.87,6,1,10,0.92
2013-5-22,68.2,57.0,50.0,64.3,55.3,48.9,97,94,85,29.91,29.80,6,2,11,0.39
2013-5-23,72.1,62.0,56.2,68.2,60.2,55.3,98,94,77,29.82,29.69,8,2,10,0.66
2013-5-24,58.5,48.7,42.8,57.7,47.5,41.2,98,95,92,29.98,29.65,6,2,11,0.46
2013-5-25,42.8,38.8,34.0,41.2,37.1,32.5,95,93,91,29.96,29.86,6,4,14,0.76
2013-5-26,48.6,40.3,34.0,42.7,37.4,32.2,100,90,76,30.08,29.81,7,3,12,0.09
2013-5-27,61.8,47.0,30.4,43.8,35.6,28.9,97,70,35,30.20,30.07,9,2,15,0.00
2013-5-28,69.4,51.3,30.3,49.3,39.1,29.0,98,69,31,30.27,30.12,7,2,10,0.00
2013-5-29,58.4,53.4,46.9,57.3,51.8,44.5,98,94,86,30.15,29.96,6,2,8,0.28
2013-5-30,80.5,66.5,53.8,65.2,60.0,53.2,100,82,54,30.06,29.98,9,2,17,0.00
2013-5-31,86.7,69.5,52.4,68.2,61.0,51.6,99,78,47,30.07,29.86,8,2,12,0.00
2013-6-1,87.4,71.9,55.0,71.3,62.5,53.9,100,75,40,29.92,29.77,11,2,15,0.14
2013-6-2,83.4,68.3,62.1,73.7,65.3,61.1,98,91,61,29.81,29.60,8,2,14,0.46
2013-6-3,62.3,54.2,44.7,61.1,52.9,42.7,100,95,88,29.82,29.73,2,0,3,0.01
2013-6-4,60.2,49.1,39.0,45.8,42.2,37.5,96,78,54,30.11,29.82,7,2,10,0.00
2013-6-5,66.6,51.3,34.6,46.9,40.1,33.6,98,70,34,30.22,30.10,6,1,10,0.00
2013-6-6,64.6,52.2,41.8,51.9,46.3,39.8,96,82,46,30.22,30.09,5,1,9,0.10
2013-6-7,52.6,50.8,48.8,51.2,49.6,47.3,97,96,93,30.11,29.91,4,0,5,0.69
2013-6-8,60.9,54.9,49.8,58.3,53.0,49.0,98,93,87,30.02,29.77,6,1,9,0.37
2013-6-9,71.0,59.6,48.2,57.7,54.1,46.6,98,84,56,30.19,30.01,8,2,12,0.00
2013-6-10,70.8,57.0,42.6,56.9,49.8,41.5,98,80,45,30.23,29.99,6,1,7,0.00
2013-6-11,57.8,54.7,53.3,55.6,53.3,51.9,97,95,90,29.99,29.60,4,1,8,1.28
2013-6-12,64.4,55.9,51.4,54.2,51.8,50.3,97,87,64,29.85,29.60,7,2,12,0.03
2013-6-13,67.9,56.0,42.4,57.2,50.6,41.3,98,84,57,29.83,29.68,6,1,8,0.00
2013-6-14,74.1,60.6,48.5,56.0,51.4,46.9,98,75,42,29.81,29.69,7,2,11,0.06
2013-6-15,70.0,56.6,40.8,48.9,44.2,39.7,100,68,38,29.94,29.81,8,2,18,0.01
2013-6-16,68.7,55.1,40.9,59.8,51.6,39.6,98,89,62,29.91,29.69,7,1,10,0.58
2013-6-17,72.5,60.7,49.2,62.0,55.0,48.1,98,83,56,29.90,29.75,8,2,13,0.01
2013-6-18,67.5,55.1,43.1,52.0,47.6,42.0,98,78,46,29.99,29.89,4,1,9,0.00
2013-6-19,67.5,55.1,41.7,47.2,43.6,40.1,97,68,40,30.19,29.97,6,2,12,0.00
2013-6-20,72.8,55.4,35.6,52.8,44.2,34.3,98,71,34,30.28,30.18,7,2,12,0.00
2013-6-21,77.8,60.4,43.6,58.9,50.3,42.3,97,73,42,30.25,30.19,6,1,10,0.00
2013-6-22,71.4,62.2,51.2,64.9,58.5,49.4,97,88,69,30.22,30.11,3,0,4,0.27
2013-6-23,77.7,66.0,61.2,72.3,64.4,60.3,98,95,82,30.12,29.95,3,0,6,0.65
2013-6-24,83.5,70.5,63.4,72.1,66.5,62.4,99,88,60,29.97,29.84,7,2,10,0.14
2013-6-25,74.3,63.4,58.4,70.5,62.5,57.6,99,97,86,29.88,29.73,1,0,2,0.75
2013-6-26,72.9,66.2,61.9,68.8,64.9,60.8,99,96,84,29.80,29.73,4,0,5,0.06
2013-6-27,76.7,68.4,61.7,71.2,65.5,60.3,98,91,74,29.79,29.70,6,1,7,0.00
2013-6-28,74.5,65.5,59.6,68.3,63.0,58.5,96,92,78,29.72,29.41,10,2,14,0.69
2013-6-29,75.6,67.3,61.9,69.1,64.5,60.7,98,91,70,29.66,29.47,6,2,10,0.89
2013-6-30,80.3,69.8,60.0,68.4,63.8,59.1,99,83,58,29.90,29.66,5,1,7,0.08
2013-7-1,72.8,67.1,60.9,67.0,63.8,59.8,98,89,79,30.07,29.90,4,0,4,0.60
2013-7-2,69.1,65.2,60.9,66.7,64.1,59.8,98,96,92,30.14,30.04,5,1,6,0.98
2013-7-3,81.5,68.7,62.0,75.1,66.9,61.4,99,94,74,30.17,30.08,3,0,5,0.24
2013-7-4,82.9,70.4,62.9,76.1,68.5,62.2,99,94,69,30.18,30.06,8,1,15,0.48
2013-7-5,85.5,72.1,61.0,73.5,68.0,60.4,100,88,61,30.12,30.01,7,1,10,0.58
2013-7-6,81.0,70.6,60.0,70.8,66.5,58.9,99,88,57,30.04,29.95,8,1,13,0.00
2013-7-7,78.2,68.1,57.5,70.9,64.2,56.7,99,88,66,30.00,29.91,5,1,8,0.00
2013-7-8,79.1,69.2,64.8,71.6,67.1,63.8,98,93,70,30.03,29.92,5,0,7,0.85
2013-7-9,79.5,71.5,66.4,70.7,67.5,65.2,98,88,70,30.06,29.97,7,2,12,0.00
2013-7-10,70.7,68.6,66.8,69.0,66.7,64.7,97,94,91,30.00,29.73,7,2,10,0.12
2013-7-11,76.8,68.5,55.8,68.8,63.6,54.4,99,86,59,30.00,29.71,7,1,13,0.32
2013-7-12,79.5,65.1,50.4,62.0,56.4,49.6,99,76,46,30.20,30.00,5,1,6,0.00
2013-7-13,78.5,66.0,50.5,66.1,59.6,49.7,99,82,57,30.30,30.20,6,2,9,0.00
2013-7-14,85.1,71.8,58.8,71.8,65.8,58.0,99,83,58,30.30,30.19,3,0,6,0.00
2013-7-15,86.7,72.5,58.7,73.8,64.8,57.9,100,80,46,30.21,30.10,6,1,10,0.00
2013-7-16,85.4,73.5,60.0,70.2,65.8,59.1,100,79,54,30.18,30.13,5,1,8,0.00
2013-7-17,88.8,74.4,59.9,74.7,67.0,59.0,98,80,53,30.17,29.92,6,2,11,1.00
2013-7-18,84.5,72.1,63.3,73.7,68.4,62.7,100,89,63,30.01,29.90,7,1,9,0.30
2013-7-19,88.6,76.3,65.4,75.1,69.9,64.5,99,83,59,29.90,29.60,12,3,19,0.39
2013-7-20,78.3,73.5,65.2,70.6,67.5,64.3,99,82,67,29.67,29.60,9,3,13,0.36
2013-7-21,74.3,63.3,51.1,58.5,54.8,49.7,95,76,54,30.03,29.94,4,1,6,0.00
2013-7-22,75.3,59.6,46.5,67.1,55.7,45.7,98,88,62,30.04,29.87,8,1,9,0.00
2013-7-23,75.1,65.2,60.0,68.9,63.6,59.1,98,95,81,29.87,29.52,1,0,2,1.02
2013-7-24,63.8,57.7,51.9,63.5,54.9,47.7,99,91,70,30.03,29.55,6,1,7,0.10
2013-7-25,70.1,57.0,41.6,57.6,51.1,40.4,98,82,58,30.14,30.03,4,1,8,0.00
2013-7-26,71.9,62.5,51.8,61.7,56.9,51.0,98,83,65,30.12,29.98,4,1,8,0.00
2013-7-27,79.5,65.7,53.3,67.2,59.0,52.2,98,81,44,30.04,29.94,5,1,7,0.00
2013-7-28,75.8,65.1,52.4,66.9,60.3,51.6,99,86,62,30.00,29.91,9,2,12,0.11
2013-7-29,77.7,68.7,60.6,67.1,62.1,55.3,97,81,47,30.04,29.93,7,2,10,0.59
2013-7-30,71.3,62.6,52.7,59.3,55.9,51.5,97,80,58,30.10,30.03,7,2,9,0.00
2013-7-31,78.1,62.3,47.4,64.8,55.1,46.6,100,80,47,30.15,30.00,5,1,6,0.00
2013-8-1,76.8,62.0,49.7,63.5,57.4,48.9,99,87,57,30.02,29.81,9,3,18,0.10
2013-8-2,75.0,65.8,56.3,65.9,59.4,54.9,99,82,52,29.83,29.73,7,2,12,0.29
2013-8-3,69.7,60.4,52.1,59.7,56.1,51.3,100,86,65,29.82,29.74,9,2,14,0.18
2013-8-4,67.9,58.9,51.2,58.9,54.5,50.4,99,86,63,29.89,29.79,7,2,11,0.05
2013-8-5,66.3,56.2,45.1,52.1,47.2,38.8,95,75,37,30.05,29.89,8,2,14,0.00
2013-8-6,73.2,56.5,40.4,59.9,49.3,39.6,99,80,42,30.15,30.05,6,1,9,0.00
2013-8-7,74.3,61.5,44.6,61.0,54.2,43.5,99,79,57,30.17,30.03,9,3,14,0.00
2013-8-8,76.0,67.9,62.7,72.1,64.5,56.6,97,89,73,30.03,29.93,6,2,10,0.42
2013-8-9,71.4,67.4,61.5,69.7,66.5,60.9,99,97,92,29.95,29.74,6,1,8,0.68
2013-8-10,68.0,61.5,46.3,64.6,54.2,44.9,99,79,53,30.01,29.76,8,2,14,0.00
2013-8-11,72.7,57.9,42.7,58.4,51.2,41.9,99,81,50,30.09,29.99,6,1,10,0.00
2013-8-12,74.0,61.2,47.6,62.0,54.5,46.8,98,81,46,30.02,29.90,8,1,14,0.00
2013-8-13,68.7,60.2,50.4,63.9,58.3,49.6,99,94,83,29.90,29.67,7,1,11,0.05
2013-8-14,65.5,58.3,49.0,61.0,53.4,47.6,97,84,68,29.92,29.65,7,2,10,0.02
2013-8-15,70.3,55.4,41.5,55.9,48.8,40.4,99,81,52,30.09,29.92,8,2,14,0.01
2013-8-16,73.7,58.8,43.3,60.1,52.6,42.2,98,82,52,30.20,30.09,6,1,10,0.04
2013-8-17,73.1,58.8,46.5,60.4,51.9,45.1,99,81,46,30.30,30.20,6,1,7,0.01
2013-8-18,75.4,58.1,43.3,63.2,52.6,42.5,99,84,45,30.30,30.08,3,1,5,0.00
2013-8-19,77.6,61.6,45.6,64.2,55.7,44.8,100,83,59,30.09,29.94,8,2,14,0.00
2013-8-20,79.9,64.9,50.3,67.5,58.4,49.5,100,82,51,30.08,30.00,8,1,11,0.01
2013-8-21,82.2,66.7,52.7,68.7,60.5,51.9,99,83,49,30.14,29.97,7,1,9,0.00
2013-8-22,82.5,68.5,55.6,69.3,62.5,54.8,99,83,54,30.00,29.77,6,1,10,0.13
2013-8-23,69.3,60.7,44.9,62.2,53.8,43.6,97,80,55,30.19,29.82,6,2,11,0.00
2013-8-24,74.2,56.0,37.7,59.2,47.5,36.9,99,77,37,30.35,30.20,5,1,8,0.00
2013-8-25,75.1,57.8,40.5,61.7,51.2,39.6,99,82,45,30.39,30.14,5,1,7,0.01
2013-8-26,67.2,62.8,56.8,65.3,61.3,55.4,98,95,81,30.15,29.88,3,0,6,0.16
2013-8-27,81.0,69.0,61.4,70.2,64.9,60.5,99,88,59,29.91,29.82,4,0,5,0.00
2013-8-28,83.1,68.7,56.7,70.7,63.5,55.9,99,85,57,29.96,29.83,4,1,9,0.01
2013-8-29,75.3,65.3,56.5,66.1,62.0,55.7,98,90,69,30.05,29.95,6,1,9,0.53
2013-8-30,80.1,68.1,61.6,69.6,64.4,61.0,100,89,62,29.99,29.75,7,1,11,0.00
2013-8-31,75.7,68.1,63.1,68.5,65.8,62.2,99,93,76,29.79,29.74,6,1,9,0.01
2013-9-1,80.3,69.9,62.0,69.5,64.7,61.1,99,85,57,29.85,29.76,4,1,6,0.01
2013-9-2,75.0,68.0,62.2,70.1,66.0,61.3,99,93,82,29.84,29.67,7,2,11,1.04
2013-9-3,69.9,62.9,57.8,65.5,60.8,56.7,99,93,80,29.78,29.67,8,0,10,0.03
2013-9-4,69.8,61.1,54.7,58.8,56.2,52.7,97,85,57,29.90,29.78,8,2,11,0.10
2013-9-5,60.8,52.0,36.7,55.6,44.4,35.4,96,78,47,30.17,29.87,6,2,9,0.00
2013-9-6,64.3,47.2,31.3,50.0,40.0,30.3,98,79,43,30.26,30.08,7,2,11,0.01
2013-9-7,70.7,55.4,42.3,56.9,49.3,41.2,100,82,46,30.08,29.82,4,1,7,0.00
2013-9-8,57.5,51.1,36.0,54.2,46.1,34.7,97,84,57,30.09,29.74,7,2,13,0.24
2013-9-9,66.2,47.1,31.4,54.4,41.8,30.4,98,84,48,30.23,30.08,6,1,12,0.00
2013-9-10,64.5,53.7,40.7,62.7,52.7,39.5,98,97,94,30.12,30.02,3,0,4,0.11
2013-9-11,88.1,72.0,61.2,75.9,67.3,60.3,99,87,54,30.03,29.85,10,2,18,0.01
2013-9-12,75.3,67.3,62.9,70.9,65.5,62.0,98,94,82,29.92,29.61,6,2,8,0.35
2013-9-13,63.8,57.2,51.8,63.2,56.2,50.4,99,97,94,29.81,29.59,3,1,10,1.15
2013-9-14,55.5,50.4,40.8,50.6,48.2,39.7,97,92,82,30.08,29.80,6,2,9,0.52
2013-9-15,66.3,49.6,34.9,54.0,45.5,34.1,99,87,57,30.16,30.02,6,1,10,0.00
2013-9-16,52.2,46.6,32.2,51.0,42.9,30.9,97,88,61,30.33,30.00,6,2,12,0.09
2013-9-17,61.5,43.4,29.6,48.0,36.9,28.6,99,81,48,30.47,30.33,4,1,9,0.00
2013-9-18,70.1,46.4,31.2,55.1,41.0,30.2,98,84,43,30.35,30.14,4,1,5,0.01
2013-9-19,74.2,52.1,35.0,57.5,45.9,34.1,99,83,41,30.18,30.03,4,1,6,0.00
2013-9-20,69.0,47.8,40.9,56.6,45.5,40.1,99,92,63,30.13,30.03,7,1,8,0.00
2013-9-21,64.3,63.6,62.7,60.8,60.4,59.9,92,89,86,29.67,29.60,7,5,13,0.04
2013-9-22,62.4,55.5,45.9,60.5,52.1,41.3,98,88,72,29.84,29.53,10,4,16,0.91
2013-9-23,46.8,44.6,42.0,41.0,39.3,36.8,86,82,77,30.03,29.84,6,2,12,0.00
2013-9-24,55.4,47.7,42.5,45.9,41.7,37.9,93,80,62,30.02,29.89,8,2,15,0.00
2013-9-25,55.1,49.2,42.3,47.8,45.1,40.5,96,86,74,30.03,29.92,4,1,7,0.00
2013-9-26,57.7,50.6,39.2,48.9,46.2,37.6,97,85,70,30.18,30.03,5,1,8,0.00
2013-9-27,68.0,54.2,44.2,53.5,48.8,43.1,96,83,56,30.30,30.18,4,1,8,0.00
2013-9-28,72.6,53.2,37.7,57.0,47.3,36.9,100,83,47,30.38,30.26,4,1,5,0.00
2013-9-29,70.4,51.4,36.8,56.6,45.3,36.0,99,83,40,30.27,30.08,5,1,8,0.01
2013-9-30,71.1,51.1,35.9,57.0,45.4,35.0,99,83,47,30.13,29.97,5,1,9,0.00
2013-10-1,72.7,54.2,36.4,57.8,48.0,35.4,99,82,53,30.02,29.87,5,1,8,0.00
2013-10-2,72.6,55.2,43.7,61.5,50.3,42.7,98,85,52,29.96,29.81,9,2,13,0.01
2013-10-3,69.8,51.9,38.4,52.9,44.5,37.4,99,79,44,30.10,29.96,7,1,10,0.00
2013-10-4,64.8,51.0,36.8,52.5,45.5,35.8,100,83,57,30.13,30.06,2,0,5,0.00
2013-10-5,63.3,52.8,41.6,48.9,44.2,38.6,94,75,43,30.17,30.08,5,1,8,0.01
2013-10-6,53.9,47.6,40.5,47.6,43.2,38.5,97,86,64,30.20,30.10,8,2,12,0.15
2013-10-7,66.7,55.8,48.5,63.4,53.9,46.9,97,94,85,30.10,29.62,13,4,17,0.53
2013-10-8,55.9,46.5,31.3,48.1,39.0,30.0,97,77,48,30.42,29.87,8,3,15,0.02
2013-10-9,63.5,41.7,27.5,45.1,35.4,26.5,98,81,44,30.52,30.39,8,1,9,0.00
2013-10-10,65.1,44.5,29.4,52.9,39.7,28.2,98,85,49,30.40,30.23,2,0,3,0.01
2013-10-11,72.8,48.7,32.1,52.6,40.3,31.1,98,78,29,30.23,30.14,3,0,6,0.00
2013-10-12,68.3,52.3,35.7,54.4,45.9,34.7,98,81,55,30.38,30.22,7,2,10,0.00
2013-10-13,62.3,52.4,39.0,50.5,46.8,37.4,95,82,64,30.42,30.33,8,3,10,0.00
2013-10-14,51.2,48.5,38.4,50.2,47.3,37.1,97,96,93,30.36,30.26,3,0,5,0.10
2013-10-15,64.1,53.4,42.3,56.2,50.0,41.5,99,89,71,30.31,30.14,7,2,11,0.00
2013-10-16,60.6,54.2,47.2,52.8,49.8,46.1,96,86,73,30.14,29.84,10,3,15,0.04
2013-10-17,62.8,52.4,42.7,54.6,48.5,41.4,98,88,59,29.84,29.71,6,1,10,0.10
2013-10-18,57.7,50.3,37.3,51.1,45.8,35.3,98,85,63,29.87,29.60,7,2,11,0.55
2013-10-19,60.0,47.0,32.2,47.0,40.8,31.0,97,81,48,29.93,29.69,7,2,10,0.02
2013-10-20,53.5,46.1,36.0,45.6,37.8,31.2,96,75,45,29.98,29.63,11,4,18,0.07
2013-10-21,57.9,44.6,28.3,44.8,37.8,27.1,97,79,60,30.09,29.91,8,2,11,0.00
2013-10-22,52.4,44.1,29.4,47.2,39.6,28.1,96,85,65,29.91,29.66,8,2,10,0.12
2013-10-23,47.9,34.6,27.0,38.3,29.9,25.8,97,84,50,29.77,29.63,7,1,10,0.01
2013-10-24,40.9,34.6,26.1,35.3,30.3,23.9,93,85,60,29.86,29.66,8,2,13,0.06
2013-10-25,39.2,36.0,30.5,32.7,30.0,25.7,92,79,65,30.12,29.86,10,3,18,0.03
2013-10-26,41.9,34.5,25.4,35.0,30.3,22.8,92,85,60,30.12,29.83,8,2,14,0.01
2013-10-27,43.7,36.3,30.5,38.0,32.4,28.3,94,86,63,30.02,29.77,9,2,12,0.03
2013-10-28,42.6,33.9,22.7,38.5,29.0,19.9,93,83,58,30.40,30.01,8,2,13,0.04
2013-10-29,40.7,27.3,17.9,27.1,20.4,14.9,92,77,41,30.49,30.39,6,1,7,0.00
2013-10-30,41.8,31.2,22.0,32.2,25.9,18.7,91,81,67,30.39,30.22,6,1,7,0.00
2013-10-31,53.2,39.6,28.6,52.4,37.7,26.1,100,93,85,30.27,29.69,7,1,9,0.48
2013-11-1,64.3,57.5,51.5,59.1,51.3,42.1,97,81,53,29.68,29.18,16,7,33,0.68
2013-11-2,52.8,45.8,34.5,44.4,40.6,30.5,92,83,68,29.86,29.58,6,2,12,0.00
2013-11-3,35.2,29.6,19.6,30.3,20.0,15.5,85,68,46,30.50,29.86,6,3,12,0.00
2013-11-4,37.3,26.2,16.1,20.7,17.2,12.9,90,71,45,30.72,30.50,5,1,7,0.00
2013-11-5,44.1,29.8,19.1,29.5,22.6,15.9,90,76,51,30.73,30.50,9,2,14,0.00
2013-11-6,53.7,40.7,27.2,42.8,34.8,24.7,92,80,64,30.50,29.91,9,2,16,0.00
2013-11-7,50.1,44.3,33.2,49.0,40.5,26.8,99,86,76,29.91,29.69,8,3,12,0.39
2013-11-8,35.6,32.4,29.5,29.4,26.0,23.6,86,77,70,30.07,29.81,8,4,17,0.00
2013-11-9,35.7,32.5,30.2,28.9,24.2,21.3,87,71,61,30.18,29.99,7,2,12,0.00
2013-11-10,40.8,35.0,31.5,38.4,33.0,28.4,96,92,86,29.99,29.70,8,3,13,0.09
2013-11-11,38.1,33.2,29.8,32.9,28.9,25.9,91,84,72,30.09,29.82,11,5,19,0.02
2013-11-12,31.1,24.0,20.8,28.2,18.9,15.8,90,81,72,30.24,29.87,9,4,17,0.02
2013-11-13,26.7,20.9,16.7,18.4,13.7,11.6,84,74,53,30.32,30.08,9,3,15,0.00
2013-11-14,40.9,29.4,20.2,30.4,23.8,15.9,92,80,65,30.09,30.03,7,1,10,0.00
2013-11-15,46.8,30.9,22.1,31.4,25.0,19.6,98,80,44,30.23,30.09,7,0,8,0.00
2013-11-16,54.9,35.9,26.9,32.2,27.8,24.4,90,76,35,30.32,30.22,3,0,5,0.00
2013-11-17,48.3,38.1,25.6,47.4,35.5,23.3,97,91,73,30.32,29.79,7,3,12,0.19
2013-11-18,54.9,49.1,37.5,53.5,42.0,29.9,97,78,54,29.79,29.40,12,6,20,0.33
2013-11-19,37.7,28.5,24.7,30.5,20.4,15.6,89,72,62,30.34,29.58,11,5,17,0.03
2013-11-20,33.3,24.5,15.3,17.8,15.2,12.4,88,68,45,30.69,30.34,6,2,12,0.00
2013-11-21,36.8,24.8,13.0,24.5,17.9,10.1,90,76,51,30.69,30.42,4,1,6,0.00
2013-11-22,37.0,32.3,31.0,36.0,30.9,29.5,97,94,93,30.02,29.80,5,0,7,0.08
2013-11-23,38.0,27.3,16.8,36.1,21.9,12.5,94,80,66,29.93,29.73,13,6,23,0.06
2013-11-24,16.7,13.6,9.5,13.3,7.6,0.5,88,77,61,30.21,29.78,11,7,22,0.01
2013-11-25,24.5,14.6,6.3,15.9,4.8,0.3,78,65,42,30.41,30.21,7,2,11,0.00
2013-11-26,30.7,27.2,23.1,27.7,21.7,14.8,93,80,68,30.28,30.12,6,2,8,0.10
2013-11-27,38.8,33.2,29.0,38.0,31.7,26.2,100,94,89,30.03,29.33,6,1,8,1.24
2013-11-28,29.0,15.7,5.5,26.2,11.2,2.2,89,82,68,30.43,29.44,0,0,0,0.01
2013-11-29,21.7,7.8,-1.6,11.8,2.9,-5.8,89,81,59,30.82,30.44,0,0,0,0.00
2013-11-30,23.8,10.5,-5.8,17.8,3.8,-10.1,92,75,58,30.86,30.40,8,2,13,0.00
2013-12-1,33.1,28.6,23.7,30.0,24.3,15.2,93,84,69,30.40,30.07,6,1,8,0.04
2013-12-2,35.7,31.4,26.6,33.3,29.5,23.8,95,93,89,30.07,29.94,2,0,3,0.00
2013-12-3,34.6,32.5,30.5,33.2,30.8,25.8,96,93,80,29.99,29.92,2,0,5,0.00
2013-12-4,37.8,29.7,20.8,27.9,24.8,18.3,91,82,66,30.21,29.99,5,1,7,0.00
2013-12-5,40.5,32.6,20.7,39.7,30.4,18.0,100,92,83,30.22,29.88,8,2,14,0.00
2013-12-6,41.0,34.8,30.7,40.2,31.1,24.6,97,86,73,30.14,29.90,4,1,8,0.28
2013-12-7,30.6,24.1,13.5,25.3,15.0,9.4,84,68,52,30.46,30.10,9,3,26,0.00
2013-12-8,24.8,17.2,10.7,13.7,10.0,6.6,87,74,51,30.60,30.46,4,1,9,0.00
2013-12-9,30.0,24.6,17.6,28.4,21.7,13.2,94,89,76,30.52,29.87,8,3,13,0.08
2013-12-10,32.2,24.4,13.2,28.7,18.5,9.5,94,78,65,29.92,29.77,7,2,12,0.00
2013-12-11,21.9,16.6,4.4,18.0,11.5,0.9,88,80,66,30.17,29.92,9,4,11,0.07
2013-12-12,11.9,5.4,-4.9,7.1,-0.5,-9.2,88,77,58,30.31,29.99,6,2,11,0.00
2013-12-13,14.2,7.4,-12.0,12.8,1.9,-16.7,95,78,64,30.45,29.91,8,3,12,0.01
2013-12-14,6.8,-3.3,-17.6,3.5,-9.6,-22.4,86,74,57,30.69,30.30,4,1,4,0.07
2013-12-15,21.6,17.0,6.9,18.5,14.1,3.8,99,88,85,30.28,29.56,5,1,8,0.59
2013-12-16,14.8,3.8,-17.5,11.4,-1.6,-22.5,92,78,66,30.29,29.70,9,2,13,0.00
2013-12-17,10.4,-5.4,-24.0,6.5,-10.2,-29.6,87,79,68,30.35,30.13,7,1,9,0.04
2013-12-18,24.7,16.4,7.4,20.4,12.5,2.8,92,85,76,30.12,29.95,5,1,8,0.00
2013-12-19,28.3,26.0,20.8,26.0,23.1,18.3,92,89,85,30.10,29.93,6,1,8,0.00
2013-12-20,34.1,31.0,27.3,32.6,29.3,25.3,95,93,91,30.12,29.89,1,0,2,0.17
2013-12-21,43.1,36.2,33.3,41.5,34.9,32.0,100,95,92,29.92,29.80,3,0,7,0.35
2013-12-22,37.1,34.2,32.0,36.3,33.1,30.6,97,96,94,29.98,29.74,5,1,6,1.01
2013-12-23,36.3,34.0,27.9,35.5,32.4,22.2,97,94,78,30.15,29.97,6,1,9,0.08
2013-12-24,27.7,15.2,3.5,22.3,10.1,-2.1,89,80,71,30.31,30.11,8,3,12,0.00
2013-12-25,13.4,3.9,-7.4,5.4,-2.0,-11.6,92,77,60,30.58,30.30,6,1,8,0.00
2013-12-26,24.3,16.8,7.1,22.0,13.5,3.3,92,87,70,30.49,30.13,6,2,7,0.08
2013-12-27,26.4,23.2,18.3,22.5,20.2,15.8,98,88,81,30.22,30.15,6,2,12,0.00
2013-12-28,32.0,24.7,9.3,30.2,22.3,6.3,94,90,86,30.15,29.99,5,0,9,0.00
2013-12-29,35.2,30.9,23.6,32.5,28.6,21.2,94,91,85,30.02,29.58,3,0,5,0.19
2013-12-30,34.1,18.4,-10.7,32.4,14.2,-14.9,96,83,66,30.23,29.57,7,2,13,0.01
2013-12-31,12.8,2.7,-8.0,8.9,-1.7,-12.3,95,81,65,30.23,30.08,4,0,6,0.01
2014-1-1,12.8,6.4,-5.5,8.1,1.1,-11.2,87,78,70,30.49,30.16,10,3,14,0.00
2014-1-2,2.2,-3.9,-8.1,-3.0,-9.0,-13.3,82,78,74,30.48,30.05,4,2,8,0.06